Location: Chuathbaluk
(61.5726°N, 159.2454°W)
Time: 16:54:24
(UTC+00:00)

ITAMSAT 1 - Pass Details

Date: 25 January 2021
Orbit: 784 x 796 km, 98.9° (Epoch: 05 March)

Event Time Altitude Azimuth Distance (km) Brightness Sun altitude
Rises 05:50:25 0° 218° (SW) 3,275 11.3 -23.8°
Reaches altitude 10° 05:53:39 10° 240° (WSW) 2,350 10.8 -24.2°
Maximum altitude 05:56:49 16° 278° (W) 1,957 10.6 -24.6°
Drops below altitude 10° 06:00:00 10° 316° (NW) 2,357 10.8 -24.9°
Sets 06:03:16 0° 337° (NNW) 3,291 11.3 -25.3°
